Weather History for Fairfield, CA

Change the Weather History Date:

Sunday, September 15, 2013

  Actual Average Record
Temperature  
Mean Temperature 70 °F -  
Max Temperature 84 °F 84 °F 95 °F (2004)
Min Temperature 55 °F 55 °F 50 °F (1997)
Cooling Degree Days 4    
Growing Degree Days 20 (Base 50)    
Moisture  
Dew Point 56 °F    
Average Humidity 72    
Maximum Humidity 100    
Minimum Humidity 37    
Precipitation  
Precipitation 0.00 in - - ()
Sea Level Pressure  
Sea Level Pressure 29.76 in    
Wind  
Wind Speed 23 mph (SW)    
Max Wind Speed 29 mph    
Max Gust Speed 38 mph    
Visibility 10 miles    
Events      
Averages and records for this station are not official NWS values.
T = Trace of Precipitation, MM = Missing Value Source: NWS Daily Summary

Daily Weather History Graph

Daily Weather History Graph

Search for Another Location

Airport:

Trip Planner

Search our weather history database for the weather conditions in past years. The results will help you decide how hot, cold, wet, or windy it might be!

Date:

Astronomy

Sep. 15, 2013 Rise Set
Actual Time 6:49 AM PDT 7:15 PM PDT
Civil Twilight 6:23 AM PDT 7:41 PM PDT
Nautical Twilight 5:52 AM PDT 8:12 PM PDT
Astronomical Twilight 5:20 AM PDT 8:44 PM PDT
Moon 4:44 PM PDT (9/15) 2:36 AM PDT (9/15)
Length of Visible Light 13h 18m
Length of Day
12h 25m
Waxing Gibbous, 83% of the Moon is Illuminated
Sep 15
Waxing Gibbous
Sep 19
Full
Sep 26
Last Quarter
Oct 4
New
Oct 11
First Quarter

Hourly Weather History & Observations

Time (PDT) Temp. Heat Index Dew Point Humidity Pressure Visibility Wind Dir Wind Speed Gust Speed Precip Events Conditions
12:56 AM 59.0 °F - 55.4 °F 88% 29.71 in 10.0 mi SW 20.7 mph - N/A   Clear
1:56 AM 57.2 °F - 55.4 °F 94% 29.72 in 10.0 mi SW 20.7 mph 28.8 mph N/A   Clear
2:56 AM 57.2 °F - 55.4 °F 94% 29.69 in 10.0 mi SW 28.8 mph 36.8 mph N/A   Clear
3:56 AM 57.2 °F - 55.4 °F 94% 29.70 in 10.0 mi WSW 28.8 mph 38.0 mph N/A   Clear
4:56 AM 55.4 °F - 53.6 °F 94% 29.72 in 10.0 mi SW 24.2 mph - N/A   Clear
5:56 AM 55.4 °F - 55.4 °F 100% 29.74 in 10.0 mi WSW 20.7 mph 31.1 mph N/A   Clear
6:56 AM 55.4 °F - 55.4 °F 100% 29.76 in 10.0 mi SW 23.0 mph - N/A   Clear
7:56 AM 57.2 °F - 55.4 °F 94% 29.77 in 10.0 mi SW 23.0 mph - N/A   Clear
8:56 AM 60.8 °F - 53.6 °F 77% 29.78 in 10.0 mi SW 23.0 mph - N/A   Clear
9:56 AM 64.4 °F - 53.6 °F 68% 29.78 in 10.0 mi SW 27.6 mph 34.5 mph N/A   Clear
10:56 AM 69.8 °F - 53.6 °F 56% 29.80 in 10.0 mi SW 24.2 mph 28.8 mph N/A   Clear
11:56 AM 75.2 °F - 53.6 °F 47% 29.79 in 10.0 mi SW 23.0 mph 33.4 mph N/A   Clear
12:56 PM 80.6 °F 80.3 °F 53.6 °F 39% 29.79 in 10.0 mi WSW 20.7 mph - N/A   Clear
1:56 PM 84.2 °F 83.0 °F 55.4 °F 37% 29.79 in 10.0 mi SW 19.6 mph - N/A   Clear
2:56 PM 84.2 °F 83.0 °F 55.4 °F 37% 29.77 in 10.0 mi WSW 20.7 mph 28.8 mph N/A   Clear
3:56 PM 82.4 °F 81.7 °F 55.4 °F 39% 29.76 in 10.0 mi WSW 23.0 mph 28.8 mph N/A   Clear
4:56 PM 80.6 °F 80.3 °F 53.6 °F 39% 29.75 in 10.0 mi WSW 24.2 mph 32.2 mph N/A   Clear
5:56 PM 77.0 °F - 55.4 °F 47% 29.75 in 10.0 mi WSW 25.3 mph - N/A   Clear
6:56 PM 73.4 °F - 57.2 °F 57% 29.75 in 10.0 mi SW 23.0 mph 31.1 mph N/A   Clear
7:56 PM 68.0 °F - 57.2 °F 68% 29.76 in 10.0 mi SW 23.0 mph 31.1 mph N/A   Clear
8:56 PM 64.4 °F - 59.0 °F 83% 29.77 in 10.0 mi SW 23.0 mph 27.6 mph N/A   Clear
9:56 PM 62.6 °F - 59.0 °F 88% 29.78 in 10.0 mi SW 23.0 mph - N/A   Clear
10:56 PM 62.6 °F - 60.8 °F 94% 29.79 in 10.0 mi SW 23.0 mph - N/A   Clear
11:56 PM 62.6 °F - 60.8 °F 94% 29.80 in 10.0 mi SW 23.0 mph - N/A   Clear